Location: Goheenville
(40.9070°N, 79.3720°W)
Time: 09:35:22
(UTC-04:00)

Cosmos 1727 Rocket - Visible Passes

Search period start: 18 April 2014 00:00
Search period end: 28 April 2014 00:00
Orbit: 962 x 996 km, 82.9° (Epoch: 15 April)

Date Brightness Start Highest point End Pass type
(mag) Time Alt. Az. Time Alt. Az. Time Alt. Az.
18 Apr 6.5 00:50:34 10° WNW 00:50:54 10° WNW 00:51:13 10° W visible
18 Apr 4.9 21:41:51 10° NNE 21:47:19 30° ENE 21:48:41 27° E visible
18 Apr 4.8 23:27:00 10° NNW 23:32:53 42° W 23:33:26 41° WSW visible
19 Apr 4.2 22:07:48 10° N 22:14:00 54° E 22:15:18 46° ESE visible
19 Apr 5.7 23:54:13 10° NW 23:58:57 23° W 00:00:04 22° W visible
20 Apr 5.7 20:50:46 10° NNE 20:54:11 15° ENE 20:57:11 11° E visible
20 Apr 4.0 22:34:07 10° N 22:40:28 85° W 22:41:57 56° S visible
21 Apr 6.4 00:22:54 10° WNW 00:24:50 12° WNW 00:26:42 10° W visible
21 Apr 5.1 21:15:50 10° NNE 21:21:06 27° ENE 21:23:51 20° ESE visible
21 Apr 4.8 23:00:46 10° NNW 23:06:46 46° W 23:08:37 36° SW visible
22 Apr 4.3 21:41:42 10° N 21:47:49 49° ENE 21:50:33 30° SE visible
22 Apr 5.7 23:27:53 10° NNW 23:32:52 25° W 23:35:18 20° WSW visible
23 Apr 3.9 22:07:57 10° N 22:14:19 88° E 22:17:16 34° S visible
23 Apr 6.4 23:56:06 10° NW 23:58:47 13° WNW 00:01:27 10° WSW visible
24 Apr 5.2 20:49:50 10° NNE 20:54:53 24° ENE 20:59:15 12° ESE visible
24 Apr 4.7 22:34:33 10° NNW 22:40:38 51° W 22:44:01 26° SSW visible
25 Apr 4.4 21:15:36 10° N 21:21:37 44° ENE 21:26:01 18° SE visible
25 Apr 5.7 23:01:34 10° NNW 23:06:46 28° W 23:10:48 15° SW visible
26 Apr 3.9 21:41:48 10° N 21:48:09 80° E 21:52:50 19° SSE visible
26 Apr 6.4 23:29:29 10° NW 23:32:43 15° W 23:35:56 10° WSW visible
27 Apr 4.6 22:08:21 10° NNW 22:14:30 57° W 22:19:41 15° SSW visible
